Temperature
9 9 9 9 9 9 9 9 9 8 8 8 8 8 8 8 8 8 8 8 8 7 7 7 7 7 7 7 7 7 7 7 7 7 7 7 7 7 7 7 7 7 7
8 8 8 8 8 8 8 8 8 8 8 8 8 8 8 8 8 8 7 7 7 7 7 7 7 7 7 7 7 7 7 6 6 6 6 6 7 7 7 7 7 7 7
8 8 8 8 8 8 8 8 8 8 8 8 7 7 7 7 7 7 7 7 7 6 6 6 6 6 6 6 6 6 6 6 6 6 6 6 6 6 6 7 7 6 6
8 8 8 8 8 8 8 8 8 7 7 7 7 7 7 7 7 7 7 7 6 6 6 6 6 6 6 6 6 6 5 5 5 5 5 5 5 5 5 6 6 6 6
8 8 8 8 8 8 7 7 7 7 7 7 7 7 7 7 7 6 6 6 6 6 6 5 5 5 5 5 5 5 5 5 5 5 5 5 5 4 4 5 5 5 5
7 7 7 7 7 7 7 7 7 7 6 6 6 6 6 6 6 6 6 6 6 5 5 5 5 5 5 5 5 5 4 4 4 4 4 4 4 4 4 4 4 5 5
7 7 7 7 7 7 7 6 6 6 6 6 6 6 6 6 5 5 5 5 5 5 5 5 5 4 4 4 4 4 4 4 4 4 4 4 4 4 4 4 4 4 4
6 6 7 7 7 7 6 6 6 6 6 6 5 5 5 5 5 5 5 5 5 5 5 4 4 4 4 4 4 4 4 3 3 3 3 4 3 3 3 3 3 3 3
5 6 6 6 6 6 6 5 5 5 5 5 5 5 5 5 5 4 4 4 4 4 4 4 4 4 3 3 3 3 3 3 3 3 3 3 3 3 3 3 3 2 2
5 5 5 5 5 5 5 5 5 5 5 4 4 4 4 4 4 4 4 4 4 4 4 4 3 3 3 3 3 3 3 2 2 2 3 3 3 3 3 2 2 2 2
4 5 5 5 5 5 5 4 4 4 4 4 4 4 4 4 4 4 4 4 4 3 3 3 3 3 3 3 2 2 2 2 2 2 2 2 2 2 2 2 2 2 2
4 4 4 4 4 4 4 4 4 4 4 4 3 3 3 3 3 4 4 3 3 3 3 3 3 2 2 2 2 2 2 2 2 2 2 2 1 1 1 1 1 1 1
4 4 3 3 3 3 3 3 3 3 3 3 3 3 3 3 3 3 3 3 3 3 2 2 2 2 2 2 1 1 1 1 1 1 1 1 1 1 1 1 1 1 1
3 3 3 3 2 2 2 2 2 2 2 2 2 2 2 2 2 2 2 2 2 2 2 2 2 2 1 1 1 1 1 1 1 1 1 1 0 1 1 0 0 0 0
2 2 2 2 2 2 2 2 2 2 2 2 2 2 2 2 2 2 2 2 2 2 2 1 1 1 1 1 1 1 1 0 0 0 0 0 0 0 -0 -0 0 0 0
2 2 1 1 1 1 1 1 1 1 1 1 1 1 1 1 2 2 2 2 1 1 1 1 1 1 0 0 0 0 0 0 0 0 -0 -0 -0 -0 -0 -1 -0 -0 -0
1 1 1 1 1 0 0 0 1 1 1 1 1 1 1 1 1 1 1 1 1 1 1 0 0 0 -0 -0 -0 -0 -0 -0 -0 -0 -1 -1 -1 -1 -1 -1 -1 -1 -1
1 1 1 1 0 0 -0 -0 0 0 0 0 1 1 1 1 1 1 1 1 0 0 0 -0 -0 -0 -0 -1 -0 -0 -1 -1 -1 -1 -1 -1 -1 -1 -1 -1 -1 -1 -1
0 0 0 0 -0 -0 -0 -0 -0 -0 -0 0 0 0 0 0 0 0 0 0 0 -0 -0 -1 -1 -1 -1 -1 -1 -1 -1 -1 -1 -1 -1 -2 -2 -1 -2 -2 -2 -1 -1
0 -0 -0 -0 -0 -0 -0 -0 -0 -0 -0 -0 -0 -0 -0 -0 -0 -0 -0 -0 -0 -0 -1 -1 -1 -1 -1 -1 -1 -1 -1 -2 -2 -2 -2 -2 -2 -2 -2 -2 -2 -2 -2
-0 -0 -1 -1 -1 -1 -1 -1 -1 -1 -1 -1 -1 -1 -1 -1 -1 -1 -1 -1 -1 -1 -1 -1 -1 -1 -1 -1 -1 -2 -2 -2 -2 -2 -2 -2 -2 -2 -2 -2 -2 -2 -2
-1 -1 -1 -1 -1 -1 -1 -1 -1 -1 -1 -1 -1 -1 -1 -1 -1 -1 -1 -1 -1 -1 -1 -2 -2 -2 -2 -2 -2 -2 -2 -2 -2 -2 -3 -3 -3 -3 -3 -3 -3 -3 -3
-1 -2 -2 -1 -1 -1 -2 -2 -2 -2 -2 -2 -2 -2 -2 -2 -2 -2 -2 -2 -2 -2 -2 -2 -2 -2 -2 -2 -3 -3 -3 -3 -3 -3 -3 -3 -3 -3 -3 -3 -3 -3 -3
-2 -2 -2 -2 -2 -2 -2 -2 -2 -2 -2 -2 -2 -2 -2 -2 -2 -2 -2 -2 -2 -2 -3 -3 -3 -3 -3 -3 -3 -3 -3 -3 -3 -3 -3 -3 -3 -3 -3 -3 -3 -3 -3
-3 -3 -2 -2 -2 -2 -3 -3 -3 -3 -3 -3 -3 -3 -3 -3 -3 -3 -3 -3 -3 -3 -3 -3 -3 -3 -3 -3 -3 -3 -3 -3 -3 -3 -3 -3 -3 -3 -3 -3 -3 -3 -4
-3 -3 -3 -3 -3 -3 -3 -3 -3 -3 -4 -4 -4 -4 -4 -4 -4 -3 -3 -3 -3 -3 -3 -3 -3 -3 -3 -3 -3 -4 -4 -4 -4 -4 -4 -4 -4 -4 -3 -4 -4 -4 -4
Wind_Speed
4 2 2 2 2 2 2 2 3 3 3 2 2 2 2 1 1 1 1 2 1 1 2 1 1 2 1 1 1 0 1 1 1 1 2 2 2 1 1 1 1 1 1
3 3 2 2 2 3 3 3 3 4 3 3 3 2 2 2 2 1 1 2 2 2 2 2 2 2 1 0 1 1 0 1 1 0 1 2 3 2 1 1 1 1 2
7 5 4 4 3 3 4 3 4 4 4 3 2 2 1 0 1 1 2 2 3 3 2 3 3 2 2 2 2 2 2 2 1 0 1 1 2 2 2 1 1 1 1
5 5 4 4 4 4 3 3 3 3 3 3 4 4 4 4 4 3 2 2 3 3 3 3 3 3 3 3 2 2 2 3 2 1 1 1 2 1 2 2 2 2 2
4 4 4 4 4 3 2 2 2 3 3 4 5 5 4 4 2 2 2 2 2 2 3 3 3 3 3 3 3 2 2 3 3 3 2 1 1 2 2 3 3 3 2
3 3 3 2 2 2 1 2 2 3 3 4 4 5 5 4 3 3 3 2 2 2 2 3 3 3 3 3 3 4 3 3 3 3 2 2 2 2 2 3 3 3 3
3 3 3 2 2 3 3 3 4 4 4 4 4 5 5 5 6 5 4 3 3 3 4 3 3 3 3 4 4 4 4 4 4 4 4 3 3 2 2 2 2 2 2
2 2 3 3 4 4 4 4 4 4 4 4 4 4 4 4 4 5 4 4 4 4 4 4 3 3 4 4 3 3 4 4 5 5 4 3 3 3 3 3 2 2 2
3 3 4 3 4 4 4 4 5 5 4 5 4 4 4 4 5 4 4 4 4 4 4 4 4 3 4 4 4 4 4 4 5 5 4 4 3 3 3 3 3 3 3
3 3 4 4 4 3 3 3 4 5 5 5 5 4 4 5 5 4 4 4 4 4 4 4 4 4 4 4 4 4 4 4 4 3 4 4 3 3 3 3 3 4 4
4 4 4 3 3 3 2 3 3 3 3 4 4 4 4 4 4 4 5 4 4 4 5 5 5 5 4 5 5 5 4 5 4 4 4 5 4 3 3 3 3 3 4
3 3 3 3 3 3 3 3 3 3 4 4 3 4 4 3 4 4 4 4 4 4 5 4 5 5 5 5 6 6 5 5 6 6 5 5 4 4 3 3 4 4 4
4 4 4 4 4 4 4 4 4 4 4 3 3 3 3 3 4 4 4 4 4 4 4 4 5 5 5 5 6 6 6 6 6 6 6 6 5 5 4 4 4 4 4
3 3 4 4 5 4 4 4 5 4 3 3 3 4 4 4 4 4 3 3 4 4 4 5 5 5 5 6 6 6 6 6 6 6 6 6 6 6 6 5 5 4 4
3 3 4 5 5 5 5 5 5 4 3 3 3 4 4 3 3 3 3 3 3 4 4 5 5 5 5 5 6 6 6 6 5 5 6 6 6 7 6 5 4 4 4
4 4 5 5 6 6 5 5 5 5 3 3 4 4 3 2 3 3 3 3 3 3 3 4 5 5 5 6 8 6 5 5 5 5 5 5 6 7 8 9 7 6 5
4 5 5 6 6 6 5 5 5 5 4 4 4 3 3 3 3 3 3 3 3 3 4 4 4 5 6 7 7 7 5 5 5 5 5 5 5 5 5 6 7 7 8
5 5 5 6 6 5 5 5 4 4 4 4 4 3 3 3 3 3 3 3 3 4 4 4 4 4 5 7 7 6 5 5 5 5 6 5 5 5 5 5 5 5 6
5 5 6 6 6 5 4 3 4 4 3 4 4 3 3 3 3 3 4 3 3 4 4 4 4 4 5 6 6 5 4 4 5 5 5 5 5 7 6 5 5 5 5
4 4 4 4 5 5 3 2 3 3 4 4 4 4 3 3 4 4 3 3 3 4 3 4 4 4 5 6 5 4 3 3 3 3 4 6 6 7 6 5 5 6 5
4 4 4 4 4 4 2 2 3 4 5 4 3 3 3 3 3 3 3 3 3 3 3 3 3 3 4 4 4 3 2 3 3 3 4 4 6 7 7 6 5 6 4
4 4 3 4 4 3 2 3 4 4 4 3 3 3 3 3 3 2 3 2 2 2 2 2 3 2 2 3 4 4 4 4 3 4 4 4 6 6 7 6 6 6 3
4 3 3 4 4 3 2 3 4 4 3 3 4 4 3 3 2 2 2 2 2 2 2 2 2 2 2 2 4 4 5 5 3 3 5 6 6 6 5 5 5 3 2
4 3 3 3 4 4 3 3 4 3 3 3 4 3 3 3 3 2 2 2 2 2 2 2 2 2 2 2 2 2 2 3 3 3 3 4 4 3 3 3 2 2 3
3 2 3 4 5 4 4 4 3 2 3 3 3 3 3 3 3 3 2 2 2 2 3 2 2 2 3 3 3 2 2 2 2 1 0 1 1 1 1 1 1 1 2
3 3 3 4 5 4 4 4 3 2 2 3 3 2 2 2 2 2 3 4 3 5 4 4 3 3 4 4 4 4 4 4 2 1 1 1 1 1 1 2 2 2 2
Wind_Direction
236 215 200 187 179 174 177 190 188 192 175 174 179 183 205 215 224 194 187 177 155 155 141 151 143 137 165 205 173 124 54 354 347 353 333 320 300 290 294 304 346 352 343
227 218 201 178 184 199 203 198 199 196 197 196 190 182 180 206 216 215 195 202 189 183 178 174 187 175 175 184 192 168 174 329 6 108 357 323 322 326 312 301 272 304 345
216 218 210 208 201 209 217 214 210 205 208 192 160 132 108 73 220 238 235 223 208 199 194 196 190 185 187 205 213 197 188 219 266 268 169 185 250 309 309 290 293 297 314
218 217 213 216 218 223 222 217 211 210 213 192 182 184 200 221 229 226 227 230 211 208 208 205 201 195 192 203 217 214 210 193 217 246 258 225 204 217 297 306 308 306 296
220 217 219 219 224 225 221 223 207 212 215 205 199 201 219 227 226 217 219 234 231 218 213 208 201 203 200 203 207 215 216 208 209 209 218 229 255 222 217 274 300 312 289
242 240 237 225 229 218 217 220 214 226 223 213 209 210 220 226 223 231 227 235 244 248 229 209 203 208 209 210 212 213 213 216 215 215 210 202 204 215 208 239 275 288 290
229 241 243 235 233 226 223 219 214 229 229 220 222 223 221 216 217 224 223 226 238 248 242 226 216 216 216 211 207 212 224 218 213 217 223 221 223 217 217 226 254 272 293
279 264 258 253 246 238 229 223 225 234 228 224 232 232 224 219 225 222 218 222 231 236 229 220 216 217 214 214 209 218 228 222 221 225 221 225 225 214 219 214 217 274 283
305 307 304 291 268 251 241 232 232 241 237 233 235 235 226 222 226 226 223 231 235 232 216 213 217 219 215 210 210 230 233 227 225 227 225 227 227 218 229 224 215 214 255
301 299 300 295 292 280 271 258 247 242 243 238 235 239 232 230 229 223 226 231 232 227 222 222 222 224 222 215 217 233 230 225 232 233 229 230 230 226 222 225 230 224 227
299 299 302 299 299 308 302 282 267 261 257 250 246 244 244 237 227 225 230 229 228 223 221 224 224 226 230 224 223 231 227 227 237 238 233 237 227 223 226 225 228 233 224
304 312 319 325 326 319 316 305 288 271 260 251 249 251 251 243 233 233 234 226 227 230 229 229 228 230 233 225 221 228 227 225 230 234 231 238 234 226 226 224 228 237 232
320 331 340 340 330 320 313 305 296 284 276 259 248 255 254 247 243 242 238 230 229 233 233 229 230 231 232 226 224 225 228 229 230 231 231 233 227 230 229 226 230 236 245
314 327 328 327 325 322 316 309 302 297 287 267 251 251 250 245 244 245 242 239 234 234 235 236 237 234 233 228 226 225 228 232 233 232 232 232 228 231 228 231 233 231 239
318 315 314 314 318 321 319 312 304 301 295 280 263 258 256 249 246 243 243 245 245 246 243 243 247 240 235 231 225 223 223 226 232 235 236 237 238 243 239 238 233 224 230
294 300 306 310 310 309 308 307 303 300 297 284 277 272 261 256 251 245 246 248 255 258 257 253 248 243 244 242 235 230 226 225 227 234 240 242 238 247 249 248 245 234 229
281 291 294 294 295 297 297 296 296 299 292 285 287 281 262 259 259 255 250 250 252 253 255 255 249 247 249 244 240 236 231 227 229 232 238 247 247 247 243 249 251 248 245
279 285 288 291 291 291 296 296 302 299 289 289 288 284 273 268 270 261 253 255 261 254 253 254 250 255 254 246 241 240 236 235 237 238 237 239 246 247 245 240 242 247 249
273 276 279 282 287 290 292 300 309 303 294 290 288 284 274 270 269 267 265 267 268 271 264 257 254 250 258 255 246 243 235 240 247 249 243 238 242 251 251 242 244 252 259
289 288 292 293 293 293 297 299 302 299 290 287 285 285 278 271 269 267 269 273 269 269 269 266 256 246 253 257 251 241 229 237 247 253 253 251 255 259 253 239 241 252 259
302 300 296 298 291 292 300 294 299 289 289 292 293 293 288 282 276 277 271 271 277 280 271 266 266 253 251 255 257 250 232 230 244 249 253 256 263 266 261 255 241 253 257
314 313 315 315 311 304 299 297 295 298 306 307 306 300 296 291 292 285 284 277 264 267 265 268 276 265 255 255 256 261 259 249 243 249 249 255 266 268 269 264 254 254 250
312 318 314 315 316 312 302 294 300 310 316 315 309 306 304 300 295 285 282 285 273 262 265 259 267 276 272 258 266 268 264 261 254 254 261 265 269 270 266 265 256 245 228
310 316 319 313 313 316 311 293 301 312 311 305 303 305 302 304 308 301 286 274 269 263 264 264 267 273 272 263 260 259 266 264 268 271 274 279 276 277 268 261 248 237 229
306 308 301 299 304 315 318 312 311 318 309 303 302 307 303 298 303 305 293 279 266 255 254 259 260 262 270 270 274 281 269 246 246 249 254 268 270 248 249 251 239 230 233
299 306 303 302 306 313 314 316 316 310 304 302 303 301 302 301 303 308 317 311 296 300 295 288 284 285 285 287 290 294 292 286 267 248 236 262 264 257 248 242 243 236 234
Height
1502 1503 1505 1505 1506 1507 1508 1509 1510 1511 1512 1513 1513 1514 1515 1516 1516 1517 1517 1517 1518 1518 1518 1518 1518 1518 1518 1518 1518 1518 1518 1518 1519 1519 1518 1517 1517 1517 1517 1518 1518 1518 1518
1499 1500 1502 1503 1504 1505 1506 1507 1507 1508 1509 1510 1510 1511 1512 1513 1513 1514 1514 1514 1515 1515 1515 1515 1515 1515 1515 1515 1515 1515 1515 1516 1516 1516 1516 1515 1516 1514 1515 1515 1515 1515 1515
1495 1497 1498 1500 1501 1502 1503 1504 1505 1505 1506 1507 1507 1508 1509 1509 1510 1510 1510 1511 1511 1511 1511 1511 1512 1512 1512 1512 1512 1512 1512 1513 1513 1514 1515 1514 1512 1512 1512 1512 1512 1512 1512
1492 1494 1495 1496 1498 1499 1500 1501 1502 1502 1503 1504 1504 1504 1504 1505 1505 1506 1506 1507 1507 1507 1508 1508 1508 1508 1508 1508 1508 1508 1509 1509 1510 1511 1511 1512 1511 1511 1509 1509 1509 1510 1510
1489 1490 1492 1493 1495 1496 1497 1498 1498 1499 1500 1500 1501 1501 1501 1501 1502 1502 1503 1503 1503 1504 1504 1504 1504 1504 1504 1504 1504 1505 1505 1505 1506 1506 1507 1508 1508 1508 1507 1506 1506 1506 1507
1486 1488 1489 1491 1492 1493 1494 1494 1495 1495 1496 1497 1497 1497 1497 1497 1498 1498 1498 1499 1499 1500 1500 1500 1500 1500 1500 1500 1500 1501 1501 1501 1502 1502 1503 1503 1504 1504 1504 1503 1503 1503 1503
1484 1485 1486 1487 1488 1489 1489 1490 1491 1491 1492 1492 1493 1493 1493 1493 1494 1494 1494 1495 1495 1495 1495 1496 1496 1496 1496 1496 1496 1496 1496 1497 1497 1498 1498 1499 1500 1501 1501 1501 1500 1499 1499
1482 1483 1483 1484 1485 1485 1486 1486 1487 1487 1488 1488 1488 1489 1489 1489 1490 1490 1490 1491 1491 1491 1491 1491 1491 1492 1492 1492 1492 1492 1492 1493 1493 1494 1494 1495 1495 1496 1497 1498 1497 1496 1496
1480 1480 1481 1482 1482 1482 1483 1483 1483 1483 1484 1484 1484 1485 1485 1485 1486 1486 1487 1487 1487 1487 1487 1487 1487 1487 1487 1488 1488 1487 1488 1488 1489 1489 1490 1490 1491 1492 1493 1494 1494 1495 1492
1478 1478 1479 1479 1479 1479 1480 1480 1480 1479 1480 1480 1481 1481 1481 1481 1482 1482 1482 1482 1483 1483 1483 1483 1483 1483 1483 1483 1483 1483 1483 1484 1484 1485 1485 1486 1487 1488 1489 1489 1490 1490 1490
1476 1476 1476 1476 1476 1476 1477 1476 1476 1476 1476 1476 1476 1476 1477 1477 1477 1477 1478 1478 1478 1478 1478 1478 1478 1478 1478 1478 1478 1478 1479 1479 1479 1480 1481 1481 1482 1483 1484 1485 1485 1485 1486
1475 1475 1474 1473 1473 1473 1473 1473 1473 1472 1472 1472 1472 1472 1472 1472 1472 1473 1473 1474 1473 1473 1473 1473 1473 1473 1474 1474 1474 1474 1474 1475 1475 1476 1476 1477 1478 1478 1479 1480 1480 1481 1481
1473 1472 1472 1471 1470 1470 1470 1469 1469 1468 1468 1468 1468 1468 1468 1468 1468 1468 1468 1469 1469 1469 1469 1469 1468 1468 1469 1469 1469 1469 1469 1470 1470 1471 1472 1472 1473 1473 1474 1475 1475 1476 1476
1471 1470 1469 1469 1468 1468 1467 1466 1465 1465 1464 1464 1464 1463 1463 1463 1464 1464 1464 1464 1464 1464 1464 1464 1463 1463 1464 1464 1464 1464 1465 1465 1465 1466 1467 1467 1468 1468 1469 1470 1471 1471 1471
1468 1468 1467 1467 1466 1465 1464 1463 1462 1462 1461 1460 1460 1459 1459 1459 1460 1459 1459 1459 1459 1459 1459 1458 1458 1458 1459 1459 1459 1460 1460 1460 1461 1461 1462 1462 1463 1464 1465 1465 1466 1466 1466
1466 1465 1465 1464 1463 1462 1461 1460 1459 1458 1458 1457 1456 1456 1456 1456 1455 1455 1455 1455 1454 1454 1454 1453 1453 1453 1454 1454 1455 1455 1455 1455 1456 1456 1457 1457 1458 1459 1460 1461 1461 1462 1462
1464 1463 1462 1461 1460 1459 1458 1456 1455 1455 1454 1453 1453 1453 1452 1452 1452 1451 1451 1450 1450 1449 1449 1448 1448 1448 1449 1449 1450 1451 1451 1451 1451 1451 1452 1452 1453 1454 1455 1455 1456 1457 1457
1461 1460 1459 1458 1457 1456 1455 1454 1452 1451 1451 1450 1449 1449 1449 1448 1448 1447 1447 1446 1445 1445 1444 1444 1444 1444 1444 1445 1445 1446 1446 1446 1446 1447 1447 1447 1448 1449 1450 1450 1450 1451 1451
1458 1457 1456 1454 1453 1452 1451 1450 1449 1448 1447 1446 1446 1446 1445 1445 1444 1443 1443 1442 1441 1440 1440 1439 1439 1439 1439 1440 1441 1442 1442 1442 1442 1442 1443 1443 1443 1444 1445 1445 1445 1445 1446
1454 1453 1452 1451 1450 1448 1448 1446 1445 1445 1444 1443 1443 1442 1442 1441 1440 1439 1439 1438 1437 1436 1435 1435 1435 1435 1435 1436 1437 1437 1437 1437 1438 1438 1438 1439 1439 1440 1440 1441 1441 1440 1441
1451 1450 1449 1448 1447 1445 1444 1443 1442 1442 1441 1440 1439 1439 1438 1438 1437 1436 1435 1434 1433 1432 1432 1432 1432 1432 1432 1432 1433 1433 1434 1434 1434 1434 1434 1434 1435 1435 1436 1436 1436 1436 1437
1448 1447 1445 1444 1444 1443 1442 1440 1440 1439 1438 1437 1436 1436 1435 1434 1433 1432 1431 1430 1430 1429 1428 1428 1429 1429 1429 1429 1429 1430 1430 1430 1430 1430 1430 1431 1431 1431 1431 1432 1432 1432 1432
1445 1444 1442 1441 1441 1440 1439 1438 1437 1436 1435 1434 1433 1432 1432 1431 1430 1429 1428 1427 1426 1425 1425 1425 1425 1425 1425 1426 1426 1427 1427 1427 1427 1427 1427 1427 1427 1427 1427 1427 1427 1427 1428
1442 1441 1440 1438 1438 1437 1436 1435 1434 1433 1432 1431 1430 1429 1428 1427 1427 1426 1425 1424 1423 1423 1422 1422 1421 1421 1422 1422 1423 1423 1423 1423 1423 1423 1423 1423 1423 1423 1422 1422 1422 1423 1423
1440 1439 1437 1436 1435 1434 1433 1433 1431 1430 1429 1428 1427 1426 1425 1424 1424 1423 1423 1422 1421 1421 1420 1419 1419 1419 1419 1420 1420 1420 1420 1420 1420 1419 1419 1419 1419 1418 1418 1418 1418 1419 1419
1437 1436 1435 1434 1433 1432 1431 1430 1429 1428 1426 1425 1424 1424 1423 1422 1421 1421 1420 1419 1419 1418 1418 1417 1417 1417 1417 1417 1417 1417 1417 1417 1417 1417 1416 1416 1416 1415 1415 1415 1415 1415 1415